Clermont County, Batavia, OH

4:41 PM EDT on May 29, 2017 (GMT -0400)
Clermont County, Batavia

Weather History for KI69 - May, 2014

Change the Weather History Date:

Monday, May 5, 2014

  Actual Average (KLUK) Record (KLUK)
Temperature  
Mean Temperature 60 °F -  
Max Temperature 71 °F 72 °F 92 °F (1949)
Min Temperature 50 °F 47 °F 29 °F (1957)
Degree Days  
Heating Degree Days 4    
Growing Degree Days 10 (Base 50)    
Moisture  
Dew Point 39 °F    
Average Humidity 51    
Maximum Humidity 63    
Minimum Humidity 38    
Precipitation  
Precipitation 0.00 in - - ()
Sea Level Pressure  
Sea Level Pressure 29.93 in    
Wind  
Wind Speed 6 mph (East)    
Max Wind Speed 10 mph    
Max Gust Speed 17 mph    
Visibility 10 miles    
Events Rain    
Averages and records for this station are not official NWS values.
T = Trace of Precipitation, MM = Missing Value Source: NWS Daily Summary

Daily Weather History Graph

Daily Weather History Graph

Search for Another Location

Airport or City:

Trip Planner

Search our weather history database for the weather conditions in past years. The results will help you decide how hot, cold, wet, or windy it might be!

Date:

Astronomy

May. 05, 2014 Rise Set
Actual Time 6:34 AM EDT 8:33 PM EDT
Civil Twilight 6:04 AM EDT 9:02 PM EDT
Nautical Twilight 5:29 AM EDT 9:38 PM EDT
Astronomical Twilight 4:50 AM EDT 10:17 PM EDT
Moon 11:52 AM EDT (5/5) 1:17 AM EDT (5/5)
Length of Visible Light 14h 58m
Length of Day
13h 59m
Waxing Crescent, 36% of the Moon is Illuminated
May 5
Waxing Crescent
May 6
First Quarter
May 14
Full
May 21
Last Quarter
May 28
New

Hourly Weather History & Observations

Time (EDT) Temp. Dew Point Humidity Pressure Visibility Wind Dir Wind Speed Gust Speed Precip Events Conditions
12:14 AM 53.6 °F 32.0 °F 44% 30.03 in 10.0 mi ENE 4.6 mph - N/A   Clear
12:35 AM 53.6 °F 32.0 °F 44% 30.03 in 10.0 mi ENE 5.8 mph - N/A   Clear
12:54 AM 51.8 °F 32.0 °F 47% 30.03 in 10.0 mi ENE 3.5 mph - N/A   Clear
1:14 AM 51.8 °F 32.0 °F 47% 30.03 in 10.0 mi ESE 5.8 mph - N/A   Clear
1:35 AM 51.8 °F 32.0 °F 47% 30.03 in 10.0 mi East 4.6 mph - N/A   Clear
1:55 AM 51.8 °F 32.0 °F 47% 30.03 in 10.0 mi ENE 4.6 mph - N/A   Scattered Clouds
2:14 AM 51.8 °F 32.0 °F 47% 30.02 in 10.0 mi East 3.5 mph - N/A   Scattered Clouds
2:35 AM 51.8 °F 32.0 °F 47% 30.03 in 10.0 mi Calm Calm - N/A   Scattered Clouds
2:55 AM 51.8 °F 32.0 °F 47% 30.03 in 10.0 mi ENE 3.5 mph - N/A   Mostly Cloudy
3:14 AM 50.0 °F 32.0 °F 50% 30.01 in 10.0 mi SE 4.6 mph - N/A   Scattered Clouds
3:35 AM 51.8 °F 32.0 °F 47% 30.01 in 10.0 mi East 3.5 mph - N/A   Mostly Cloudy
3:54 AM 50.0 °F 32.0 °F 50% 30.00 in 10.0 mi ENE 4.6 mph - N/A   Scattered Clouds
4:14 AM 50.0 °F 32.0 °F 50% 30.00 in 10.0 mi ESE 4.6 mph - N/A   Clear
4:35 AM 50.0 °F 33.8 °F 54% 30.00 in 10.0 mi NE 3.5 mph - N/A   Clear
4:54 AM 50.0 °F 33.8 °F 54% 30.00 in 10.0 mi East 5.8 mph - N/A   Scattered Clouds
5:14 AM 50.0 °F 33.8 °F 54% 30.00 in 10.0 mi East 8.1 mph - N/A Rain Light Rain
5:35 AM 51.8 °F 33.8 °F 50% 29.99 in 10.0 mi ESE 8.1 mph - N/A   Scattered Clouds
5:54 AM 51.8 °F 33.8 °F 50% 30.00 in 10.0 mi ESE 6.9 mph - N/A   Scattered Clouds
6:14 AM 50.0 °F 35.6 °F 58% 30.00 in 10.0 mi ESE 6.9 mph - N/A   Clear
6:35 AM 50.0 °F 35.6 °F 58% 30.00 in 10.0 mi ESE 5.8 mph - N/A   Clear
6:54 AM 50.0 °F 35.6 °F 58% 30.00 in 10.0 mi ESE 6.9 mph - N/A   Clear
7:14 AM 50.0 °F 35.6 °F 58% 30.01 in 10.0 mi ESE 6.9 mph - N/A   Clear
7:35 AM 50.0 °F 35.6 °F 58% 30.01 in 10.0 mi ENE 6.9 mph - N/A   Clear
7:54 AM 50.0 °F 37.4 °F 62% 30.01 in 10.0 mi East 6.9 mph - N/A   Clear
8:14 AM 50.0 °F 37.4 °F 62% 30.02 in 10.0 mi East 8.1 mph - N/A   Clear
8:35 AM 50.0 °F 37.4 °F 62% 30.02 in 10.0 mi ENE 9.2 mph - N/A   Clear
8:54 AM 51.8 °F 37.4 °F 58% 30.03 in 10.0 mi East 6.9 mph - N/A   Scattered Clouds
9:14 AM 51.8 °F 37.4 °F 58% 30.00 in 10.0 mi ESE 10.4 mph - N/A   Scattered Clouds
9:35 AM 51.8 °F 39.2 °F 62% 29.97 in 10.0 mi ESE 10.4 mph 16.1 mph N/A   Clear
9:54 AM 53.6 °F 39.2 °F 58% 29.98 in 10.0 mi ESE 6.9 mph 10.4 mph N/A   Clear
10:15 AM 53.6 °F 39.2 °F 58% 29.97 in 10.0 mi ESE 5.8 mph - N/A   Clear
10:35 AM 55.4 °F 39.2 °F 54% 29.97 in 10.0 mi East 8.1 mph - N/A   Clear
10:54 AM 59.0 °F 39.2 °F 48% 29.95 in 10.0 mi ESE 6.9 mph - N/A   Clear
11:15 AM 59.0 °F 39.2 °F 48% 29.94 in 10.0 mi ESE 8.1 mph - N/A   Clear
11:35 AM 59.0 °F 39.2 °F 48% 29.98 in 10.0 mi East 5.8 mph - N/A   Clear
11:54 AM 59.0 °F 39.2 °F 48% 29.98 in 10.0 mi ESE 3.5 mph - N/A   Clear
12:15 PM 59.0 °F 41.0 °F 51% 29.92 in 10.0 mi SE 9.2 mph - N/A   Scattered Clouds
12:35 PM 59.0 °F 41.0 °F 51% 29.90 in 10.0 mi SE 10.4 mph 16.1 mph N/A   Scattered Clouds
12:54 PM 62.6 °F 41.0 °F 45% 29.90 in 10.0 mi ESE 10.4 mph - N/A   Clear
1:15 PM 62.6 °F 41.0 °F 45% 29.90 in 10.0 mi ESE 9.2 mph - N/A   Clear
1:35 PM 64.4 °F 42.8 °F 45% 29.91 in 10.0 mi East 6.9 mph - N/A   Clear
2:15 PM 66.2 °F 42.8 °F 43% 29.89 in 10.0 mi ESE 8.1 mph - N/A   Clear
2:35 PM 66.2 °F 42.8 °F 43% 29.89 in 10.0 mi ESE 6.9 mph - N/A   Clear
2:54 PM 68.0 °F 44.6 °F 43% 29.88 in 10.0 mi East 8.1 mph - N/A   Clear
3:15 PM 68.0 °F 42.8 °F 40% 29.87 in 10.0 mi ENE 6.9 mph - N/A   Clear
3:35 PM 69.8 °F 42.8 °F 38% 29.86 in 10.0 mi East 3.5 mph - N/A   Clear
3:54 PM 69.8 °F 44.6 °F 40% 29.85 in 10.0 mi East 4.6 mph - N/A   Clear
4:15 PM 71.6 °F 46.4 °F 41% 29.85 in 10.0 mi Calm Calm - N/A   Clear
4:35 PM 71.6 °F 46.4 °F 41% 29.84 in 10.0 mi Calm Calm - N/A   Clear
4:54 PM 71.6 °F 46.4 °F 41% 29.83 in 10.0 mi NE 5.8 mph - N/A   Clear
5:15 PM 69.8 °F 46.4 °F 43% 29.83 in 10.0 mi NE 3.5 mph - N/A   Clear
5:35 PM 69.8 °F 46.4 °F 43% 29.83 in 10.0 mi NE 8.1 mph - N/A   Clear
5:54 PM 68.0 °F 46.4 °F 46% 29.81 in 10.0 mi NE 10.4 mph 16.1 mph N/A   Clear
6:15 PM 68.0 °F 46.4 °F 46% 29.83 in 10.0 mi NE 5.8 mph 17.3 mph N/A   Clear
6:34 PM 66.2 °F 46.4 °F 49% 29.83 in 10.0 mi ENE 8.1 mph 17.3 mph N/A   Clear
6:54 PM 64.4 °F 44.6 °F 49% 29.83 in 10.0 mi NE 9.2 mph 16.1 mph N/A   Clear
7:15 PM 62.6 °F 44.6 °F 52% 29.84 in 10.0 mi East 9.2 mph - N/A   Clear
7:35 PM 62.6 °F 44.6 °F 52% 29.84 in 10.0 mi ENE 10.4 mph - N/A   Clear
7:54 PM 62.6 °F 44.6 °F 52% 29.84 in 10.0 mi East 6.9 mph - N/A   Clear
8:15 PM 60.8 °F 42.8 °F 52% 29.85 in 10.0 mi East 8.1 mph - N/A   Clear
8:34 PM 60.8 °F 44.6 °F 55% 29.85 in 10.0 mi East 4.6 mph - N/A   Clear
8:54 PM 60.8 °F 44.6 °F 55% 29.86 in 10.0 mi Calm Calm - N/A   Clear
9:15 PM 59.0 °F 44.6 °F 59% 29.87 in 10.0 mi NE 3.5 mph - N/A   Clear
9:34 PM 59.0 °F 44.6 °F 59% 29.87 in 10.0 mi ENE 3.5 mph - N/A   Clear
9:54 PM 59.0 °F 44.6 °F 59% 29.87 in 10.0 mi ENE 3.5 mph - N/A   Clear
10:15 PM 59.0 °F 42.8 °F 55% 29.88 in 10.0 mi ENE 3.5 mph - N/A   Clear
10:34 PM 57.2 °F 42.8 °F 59% 29.88 in 10.0 mi NE 3.5 mph - N/A   Clear
10:54 PM 57.2 °F 42.8 °F 59% 29.88 in 10.0 mi ENE 3.5 mph - N/A   Clear
11:15 PM 55.4 °F 42.8 °F 63% 29.88 in 10.0 mi NE 3.5 mph - N/A   Clear
11:34 PM 55.4 °F 41.0 °F 58% 29.89 in 10.0 mi Calm Calm - N/A   Clear
11:54 PM 53.6 °F 41.0 °F 62% 29.89 in 10.0 mi NE 3.5 mph - N/A   Clear